Location: ???????
(55.4362°N, 38.1183°E)
Time: 07:34:10
(UTC+00:00)

Lacrosse 4 Rocket - Pass Details

Date: 25 October 2021
Orbit: 537 x 619 km, 68.0° (Epoch: 30 November)

Event Time Altitude Azimuth Distance (km) Brightness Sun altitude
Rises 15:53:48 0° 315° (NW) 2,807 5.7 -16.1°
Reaches altitude 10° 15:56:11 10° 305° (NW) 1,918 4.9 -16.4°
Maximum altitude 16:00:00 31° 243° (WSW) 1,049 3.3 -17.0°
Drops below altitude 10° 16:03:52 10° 181° (S) 1,948 4.1 -17.5°
Sets 16:06:18 0° 172° (S) 2,858 4.8 -17.9°
